Location: *
(2.5500°S, 65.9667°W)
Time: 14:11:21
(UTC+00:00)

Cosmos 2084 - Pass Details

Date: 23 May 2022
Orbit: 506 x 671 km, 62.8° (Epoch: 30 June)

Event Time Altitude Azimuth Distance (km) Brightness Sun altitude
Rises 22:56:14 0° 319° (NW) 2,891 8.2 -9.2°
Reaches altitude 10° 22:58:38 10° 310° (NW) 2,013 7.5 -9.8°
Maximum altitude 23:02:47 33° 245° (WSW) 1,087 5.3 -10.7°
Drops below altitude 10° 23:07:04 10° 181° (S) 2,085 6.1 -11.7°
Sets 23:09:36 0° 171° (S) 3,010 6.8 -12.3°
